TimeEDT,TemperatureF,Dew PointF,Humidity,Sea Level PressureIn,VisibilityMPH,Wind Direction,Wind SpeedMPH,Gust SpeedMPH,PrecipitationIn,Events,Conditions,WindDirDegrees,DateUTC
12:53 AM,64.9,62.1,90,29.59,10.0,NE,4.6,-,N/A,,Clear,50,2013-06-29 04:53:00
1:53 AM,64.9,62.1,90,29.58,10.0,NE,5.8,-,N/A,,Mostly Cloudy,50,2013-06-29 05:53:00
2:53 AM,64.0,61.0,90,29.58,10.0,Calm,Calm,-,N/A,,Clear,0,2013-06-29 06:53:00
3:19 AM,64.4,60.8,88,29.59,8.0,NE,4.6,-,N/A,,Scattered Clouds,50,2013-06-29 07:19:00
3:27 AM,64.4,62.6,94,29.59,6.0,NNE,3.5,-,N/A,,Mostly Cloudy,30,2013-06-29 07:27:00
3:53 AM,64.0,62.1,93,29.58,8.0,NE,4.6,-,N/A,,Overcast,40,2013-06-29 07:53:00
4:27 AM,62.6,60.8,94,29.59,10.0,NE,3.5,-,N/A,,Mostly Cloudy,40,2013-06-29 08:27:00
4:39 AM,62.6,60.8,94,29.59,10.0,Calm,Calm,-,N/A,,Partly Cloudy,0,2013-06-29 08:39:00
4:53 AM,63.0,60.1,90,29.59,10.0,Calm,Calm,-,N/A,,Clear,0,2013-06-29 08:53:00
5:44 AM,62.6,60.8,94,29.60,10.0,Calm,Calm,-,N/A,,Scattered Clouds,0,2013-06-29 09:44:00
5:53 AM,62.1,59.0,90,29.60,10.0,Calm,Calm,-,N/A,,Scattered Clouds,0,2013-06-29 09:53:00
6:53 AM,62.1,59.0,90,29.60,10.0,NNE,3.5,-,N/A,,Mostly Cloudy,20,2013-06-29 10:53:00
7:53 AM,66.0,62.1,87,29.62,5.0,Calm,Calm,-,N/A,,Mostly Cloudy,0,2013-06-29 11:53:00
8:08 AM,66.2,62.6,88,29.63,10.0,NE,3.5,-,N/A,,Mostly Cloudy,40,2013-06-29 12:08:00
8:35 AM,66.2,60.8,83,29.63,10.0,NNE,5.8,-,N/A,,Mostly Cloudy,20,2013-06-29 12:35:00
8:53 AM,66.9,62.1,84,29.62,10.0,NNE,4.6,-,N/A,,Mostly Cloudy,20,2013-06-29 12:53:00
9:24 AM,66.2,60.8,83,29.63,10.0,North,5.8,-,N/A,,Mostly Cloudy,10,2013-06-29 13:24:00
9:53 AM,68.0,62.1,81,29.62,10.0,North,5.8,-,N/A,,Mostly Cloudy,10,2013-06-29 13:53:00
10:34 AM,69.8,60.8,73,29.64,10.0,North,5.8,-,N/A,,Overcast,10,2013-06-29 14:34:00
10:53 AM,69.1,61.0,75,29.63,10.0,NNE,5.8,-,N/A,,Overcast,20,2013-06-29 14:53:00
11:53 AM,71.1,63.0,75,29.63,10.0,NE,8.1,-,N/A,,Overcast,50,2013-06-29 15:53:00
12:24 PM,71.6,62.6,73,29.65,10.0,East,9.2,-,N/A,,Overcast,90,2013-06-29 16:24:00
12:53 PM,72.0,62.1,71,29.64,10.0,NE,9.2,-,N/A,,Overcast,50,2013-06-29 16:53:00
1:32 PM,69.8,60.8,73,29.65,10.0,NE,12.7,-,N/A,,Overcast,50,2013-06-29 17:32:00
1:53 PM,71.1,61.0,70,29.65,10.0,NE,13.8,-,N/A,,Overcast,50,2013-06-29 17:53:00
2:53 PM,70.0,62.1,76,29.66,10.0,ENE,10.4,-,0.00,,Overcast,60,2013-06-29 18:53:00
3:53 PM,72.0,60.1,66,29.66,10.0,NE,11.5,-,N/A,,Mostly Cloudy,50,2013-06-29 19:53:00
4:53 PM,69.1,60.1,73,29.68,10.0,NNE,9.2,-,N/A,,Overcast,30,2013-06-29 20:53:00
5:09 PM,69.8,59.0,68,29.69,10.0,NE,12.7,-,N/A,,Overcast,50,2013-06-29 21:09:00
5:53 PM,70.0,59.0,68,29.68,10.0,NE,8.1,-,N/A,,Overcast,50,2013-06-29 21:53:00
6:53 PM,69.1,59.0,70,29.70,10.0,NE,10.4,-,N/A,,Overcast,50,2013-06-29 22:53:00
7:53 PM,69.1,59.0,70,29.71,10.0,ENE,10.4,-,N/A,,Mostly Cloudy,70,2013-06-29 23:53:00
8:53 PM,68.0,59.0,73,29.73,9.0,NE,6.9,-,N/A,,Mostly Cloudy,50,2013-06-30 00:53:00
9:53 PM,68.0,59.0,73,29.75,10.0,NE,5.8,-,N/A,,Mostly Cloudy,40,2013-06-30 01:53:00
10:53 PM,66.9,57.9,73,29.76,10.0,NE,6.9,-,N/A,,Overcast,40,2013-06-30 02:53:00
11:53 PM,66.9,57.9,73,29.76,10.0,NNE,5.8,-,N/A,,Overcast,30,2013-06-30 03:53:00